Back to catalog

ATLAS 5 CENTAUR DEB

AliveHEO
NORAD 44651·DEBRIS·🇺🇸 United States

Launched Oct 17, 2018 from Cape Canaveral Space Force Station

Loading…

Next Passes (next 24 hours)

TLE

FreshSource: Space-Track

Epoch: Sep 10, 2026, 00:26 UTC

1 44651U 18079M   26253.01833122 -.00000205  00000-0  00000-0 0  9991
2 44651  13.3970  25.5811 4674339 335.8930   7.7878  1.83292575 49635

Track ATLAS 5 CENTAUR DEB in real time with AllMySat

Download on the App Store